| time (UTC) | temp F | wind direction | speed MPH | gust MPH | rain 1hr in | rain 24hr in | rain mn in | humidity % | barometer mb |
| 20260507092420 | 46 | 225 | 7.0 | 9.0 | 0.00 | 0.00 | 0.00 | 57 | 992.5 |
| 20260507091917 | 46 | 203 | 8.0 | 9.0 | 0.00 | 0.00 | 0.00 | 56 | 992.6 |
| 20260507091419 | 46 | 225 | 6.0 | 8.0 | 0.00 | 0.00 | 0.00 | 56 | 992.6 |
| 20260507090917 | 46 | 225 | 7.0 | 8.0 | 0.00 | 0.00 | 0.00 | 56 | 992.6 |
| 20260507090417 | 46 | 225 | 6.0 | 9.0 | 0.00 | 0.01 | 0.00 | 56 | 992.6 |
| 20260507085919 | 46 | 225 | 7.0 | 8.0 | 0.00 | 0.01 | 0.00 | 56 | 992.6 |
| 20260507085420 | 46 | 203 | 3.0 | 4.0 | 0.00 | 0.01 | 0.00 | 56 | 992.7 |
| 20260507084918 | 46 | 203 | 7.0 | 8.0 | 0.00 | 0.01 | 0.00 | 56 | 992.7 |
| 20260507084457 | 46 | 203 | 7.0 | 8.0 | 0.00 | 0.01 | 0.00 | 56 | 992.7 |
| 20260507083939 | 46 | 225 | 6.0 | 8.0 | 0.00 | 0.01 | 0.00 | 56 | 992.7 |
| 20260507083439 | 46 | 225 | 6.0 | 8.0 | 0.00 | 0.01 | 0.00 | 56 | 992.7 |
| 20260507082919 | 47 | 203 | 6.0 | 7.0 | 0.00 | 0.01 | 0.00 | 55 | 992.7 |
| 20260507082417 | 47 | 203 | 2.0 | 4.0 | 0.00 | 0.01 | 0.00 | 55 | 992.8 |
| 20260507081917 | 47 | 203 | 6.0 | 8.0 | 0.00 | 0.01 | 0.00 | 55 | 992.8 |
| 20260507081417 | 47 | 225 | 6.0 | 7.0 | 0.00 | 0.01 | 0.00 | 55 | 992.8 |
| 20260507080919 | 47 | 225 | 6.0 | 8.0 | 0.00 | 0.01 | 0.00 | 55 | 992.9 |
| 20260507080418 | 47 | 225 | 5.0 | 6.0 | 0.00 | 0.01 | 0.00 | 55 | 992.8 |
| 20260507075918 | 47 | 248 | 4.0 | 5.0 | 0.00 | 0.02 | 0.00 | 55 | 992.8 |
| 20260507075417 | 47 | 248 | 5.0 | 6.0 | 0.00 | 0.02 | 0.00 | 55 | 992.8 |
| 20260507074920 | 47 | 225 | 5.0 | 6.0 | 0.00 | 0.02 | 0.00 | 54 | 992.9 |
| 20260507074500 | 47 | 225 | 5.0 | 5.0 | 0.00 | 0.03 | 0.00 | 54 | 992.8 |
| 20260507073917 | 47 | 225 | 5.0 | 6.0 | 0.00 | 0.03 | 0.00 | 54 | 992.9 |
| 20260507073420 | 48 | 225 | 6.0 | 7.0 | 0.00 | 0.04 | 0.00 | 54 | 992.9 |
| 20260507072920 | 48 | 225 | 5.0 | 6.0 | 0.00 | 0.04 | 0.00 | 55 | 992.9 |
| 20260507072418 | 48 | 225 | 5.0 | 7.0 | 0.00 | 0.04 | 0.00 | 55 | 992.9 |
| 20260507071920 | 48 | 203 | 6.0 | 7.0 | 0.00 | 0.04 | 0.00 | 55 | 992.9 |
| 20260507071419 | 48 | 225 | 6.0 | 8.0 | 0.00 | 0.04 | 0.00 | 54 | 992.9 |
| 20260507070917 | 48 | 225 | 5.0 | 6.0 | 0.00 | 0.05 | 0.00 | 54 | 992.9 |
| 20260507070419 | 48 | 225 | 5.0 | 6.0 | 0.00 | 0.05 | 0.00 | 54 | 992.9 |
| 20260507065917 | 48 | 225 | 4.0 | 6.0 | 0.00 | 0.05 | 0.00 | 54 | 992.9 |
| 20260507065420 | 48 | 225 | 5.0 | 5.0 | 0.00 | 0.05 | 0.00 | 54 | 992.9 |
| 20260507064919 | 48 | 225 | 6.0 | 8.0 | 0.00 | 0.06 | 0.00 | 54 | 993.0 |
| 20260507064417 | 48 | 225 | 6.0 | 7.0 | 0.00 | 0.06 | 0.00 | 55 | 993.0 |
| 20260507063917 | 48 | 225 | 7.0 | 8.0 | 0.00 | 0.06 | 0.00 | 55 | 993.0 |
| 20260507063420 | 48 | 225 | 7.0 | 9.0 | 0.00 | 0.07 | 0.00 | 55 | 993.0 |
| 20260507063041 | 48 | 225 | 7.0 | 8.0 | 0.00 | 0.07 | 0.00 | 54 | 993.1 |
| 20260507062419 | 48 | 225 | 6.0 | 7.0 | 0.00 | 0.07 | 0.00 | 54 | 993.2 |
| 20260507061918 | 48 | 225 | 6.0 | 7.0 | 0.00 | 0.08 | 0.00 | 54 | 993.2 |
| 20260507061417 | 48 | 225 | 6.0 | 8.0 | 0.00 | 0.08 | 0.00 | 54 | 993.3 |
| 20260507060920 | 48 | 225 | 6.0 | 7.0 | 0.00 | 0.09 | 0.00 | 54 | 993.2 |
| 20260507060419 | 48 | 225 | 6.0 | 7.0 | 0.00 | 0.09 | 0.00 | 54 | 993.2 |
| 20260507055919 | 48 | 225 | 6.0 | 7.0 | 0.00 | 0.09 | 0.00 | 54 | 993.4 |
| 20260507055437 | 48 | 225 | 6.0 | 7.0 | 0.00 | 0.10 | 0.00 | 54 | 993.4 |
| 20260507054917 | 48 | 225 | 6.0 | 7.0 | 0.00 | 0.11 | 0.00 | 54 | 993.5 |
| 20260507054417 | 48 | 225 | 5.0 | 6.0 | 0.00 | 0.11 | 0.00 | 54 | 993.5 |
| 20260507053918 | 48 | 225 | 7.0 | 8.0 | 0.00 | 0.11 | 0.00 | 54 | 993.4 |
| 20260507053417 | 48 | 225 | 5.0 | 6.0 | 0.00 | 0.11 | 0.00 | 54 | 993.5 |
| 20260507052917 | 48 | 225 | 6.0 | 6.0 | 0.00 | 0.11 | 0.00 | 54 | 993.5 |
| 20260507052417 | 48 | 248 | 5.0 | 6.0 | 0.00 | 0.12 | 0.00 | 54 | 993.5 |
| 20260507051918 | 48 | 225 | 5.0 | 6.0 | 0.00 | 0.12 | 0.00 | 54 | 993.5 |
| 20260507051437 | 48 | 225 | 7.0 | 8.0 | 0.00 | 0.12 | 0.00 | 53 | 993.6 |
| 20260507050917 | 48 | 225 | 6.0 | 7.0 | 0.00 | 0.13 | 0.00 | 54 | 993.6 |
| 20260507050437 | 48 | 225 | 6.0 | 7.0 | 0.00 | 0.13 | 0.00 | 54 | 993.6 |
| 20260507045937 | 48 | 225 | 6.0 | 9.0 | 0.00 | 0.14 | 0.00 | 53 | 993.6 |
| 20260507045417 | 48 | 203 | 6.0 | 7.0 | 0.00 | 0.14 | 0.00 | 54 | 993.6 |
| 20260507044918 | 48 | 203 | 6.0 | 8.0 | 0.00 | 0.15 | 0.00 | 53 | 993.6 |
| 20260507044417 | 48 | 203 | 6.0 | 8.0 | 0.00 | 0.16 | 0.00 | 53 | 993.6 |
| 20260507043936 | 49 | 225 | 6.0 | 7.0 | 0.00 | 0.17 | 0.00 | 53 | 993.6 |
| 20260507043417 | 49 | 225 | 6.0 | 7.0 | 0.00 | 0.17 | 0.00 | 53 | 993.7 |
| 20260507042937 | 49 | 225 | 4.0 | 6.0 | 0.00 | 0.18 | 0.00 | 53 | 993.6 |
| 20260507042417 | 49 | 203 | 2.0 | 3.0 | 0.00 | 0.19 | 0.00 | 52 | 993.6 |
| 20260507041917 | 49 | 203 | 2.0 | 3.0 | 0.00 | 0.19 | 0.00 | 52 | 993.6 |
| 20260507041417 | 49 | 203 | 2.0 | 4.0 | 0.00 | 0.20 | 0.00 | 52 | 993.6 |
| 20260507040959 | 49 | 203 | 1.0 | 3.0 | 0.00 | 0.20 | 0.00 | 51 | 993.7 |
| 20260507040419 | 50 | 203 | 2.0 | 5.0 | 0.00 | 0.21 | 0.00 | 51 | 993.7 |
| 20260507035917 | 50 | 203 | 2.0 | 3.0 | 0.00 | 0.21 | 0.21 | 51 | 993.7 |
| 20260507035420 | 50 | 203 | 1.0 | 3.0 | 0.00 | 0.21 | 0.21 | 51 | 993.7 |
| 20260507034919 | 50 | 203 | 1.0 | 2.0 | 0.00 | 0.22 | 0.21 | 51 | 993.7 |
| 20260507034419 | 50 | 203 | 1.0 | 2.0 | 0.00 | 0.23 | 0.21 | 51 | 993.8 |
| 20260507033917 | 50 | 180 | 1.0 | 2.0 | 0.00 | 0.23 | 0.21 | 51 | 993.8 |
| 20260507033420 | 50 | 203 | 1.0 | 3.0 | 0.00 | 0.24 | 0.21 | 51 | 993.9 |
| 20260507032920 | 50 | 180 | 1.0 | 2.0 | 0.00 | 0.24 | 0.21 | 51 | 993.9 |
| 20260507032420 | 50 | 180 | 1.0 | 3.0 | 0.00 | 0.25 | 0.21 | 51 | 994.0 |
| 20260507031937 | 50 | 180 | 1.0 | 3.0 | 0.00 | 0.26 | 0.21 | 51 | 994.0 |
| 20260507031437 | 50 | 180 | 2.0 | 4.0 | 0.00 | 0.27 | 0.21 | 51 | 994.0 |
| 20260507030920 | 50 | 203 | 2.0 | 3.0 | 0.00 | 0.27 | 0.21 | 52 | 994.1 |
| 20260507030420 | 50 | 180 | 2.0 | 4.0 | 0.00 | 0.28 | 0.21 | 52 | 994.0 |
| 20260507025920 | 50 | 180 | 3.0 | 5.0 | 0.00 | 0.29 | 0.21 | 52 | 994.0 |
| 20260507025419 | 50 | 180 | 3.0 | 6.0 | 0.00 | 0.30 | 0.21 | 52 | 994.1 |
| 20260507024920 | 50 | 180 | 4.0 | 5.0 | 0.00 | 0.31 | 0.21 | 52 | 994.1 |
| 20260507024419 | 50 | 180 | 3.0 | 5.0 | 0.00 | 0.31 | 0.21 | 52 | 994.2 |
| 20260507023919 | 50 | 203 | 2.0 | 4.0 | 0.00 | 0.32 | 0.21 | 52 | 994.2 |
| 20260507023420 | 50 | 180 | 3.0 | 6.0 | 0.00 | 0.34 | 0.21 | 52 | 994.1 |
| 20260507022917 | 50 | 180 | 3.0 | 6.0 | 0.00 | 0.35 | 0.21 | 52 | 994.1 |
| 20260507022417 | 50 | 180 | 4.0 | 5.0 | 0.00 | 0.36 | 0.21 | 51 | 994.1 |
| 20260507021919 | 50 | 180 | 4.0 | 5.0 | 0.00 | 0.38 | 0.21 | 51 | 994.1 |
| 20260507021419 | 50 | 180 | 2.0 | 4.0 | 0.00 | 0.39 | 0.21 | 52 | 994.1 |
| 20260507020939 | 50 | 203 | 3.0 | 4.0 | 0.00 | 0.40 | 0.21 | 51 | 994.0 |
| 20260507020416 | 50 | 180 | 4.0 | 8.0 | 0.00 | 0.41 | 0.21 | 51 | 993.8 |
| 20260507015920 | 50 | 180 | 3.0 | 6.0 | 0.00 | 0.41 | 0.21 | 51 | 993.9 |
| 20260507015419 | 50 | 180 | 2.0 | 5.0 | 0.00 | 0.42 | 0.21 | 51 | 993.9 |
| 20260507014919 | 50 | 180 | 5.0 | 6.0 | 0.00 | 0.43 | 0.21 | 52 | 993.8 |
| 20260507014419 | 51 | 180 | 5.0 | 7.0 | 0.00 | 0.44 | 0.21 | 52 | 993.8 |
| 20260507013917 | 51 | 180 | 2.0 | 3.0 | 0.00 | 0.44 | 0.21 | 52 | 993.7 |
| 20260507013417 | 51 | 180 | 2.0 | 4.0 | 0.00 | 0.45 | 0.21 | 51 | 993.8 |
| 20260507012917 | 51 | 180 | 3.0 | 6.0 | 0.00 | 0.45 | 0.21 | 51 | 993.7 |
| 20260507012419 | 51 | 180 | 2.0 | 4.0 | 0.00 | 0.45 | 0.21 | 51 | 993.7 |
| 20260507011918 | 51 | 180 | 4.0 | 6.0 | 0.00 | 0.45 | 0.21 | 50 | 993.5 |
| 20260507011420 | 51 | 0 | 2.0 | 4.0 | 0.00 | 0.46 | 0.21 | 49 | 993.5 |
| 20260507010917 | 51 | 0 | 2.0 | 5.0 | 0.00 | 0.46 | 0.21 | 49 | 993.5 |
| 20260507010418 | 51 | 90 | 3.0 | 4.0 | 0.00 | 0.46 | 0.21 | 50 | 993.4 |
| 20260507005916 | 51 | 113 | 4.0 | 8.0 | 0.00 | 0.47 | 0.21 | 51 | 993.5 |
| 20260507005416 | 51 | 113 | 6.0 | 7.0 | 0.00 | 0.47 | 0.21 | 50 | 993.4 |
| 20260507004938 | 51 | 0 | 3.0 | 5.0 | 0.00 | 0.48 | 0.21 | 51 | 993.5 |
| 20260507004437 | 51 | 113 | 7.0 | 8.0 | 0.00 | 0.48 | 0.21 | 50 | 993.4 |
| 20260507003916 | 51 | 90 | 6.0 | 8.0 | 0.00 | 0.48 | 0.21 | 50 | 993.5 |
| 20260507003417 | 51 | 90 | 6.0 | 7.0 | 0.00 | 0.49 | 0.21 | 50 | 993.6 |
| 20260507002917 | 51 | 113 | 6.0 | 8.0 | 0.00 | 0.49 | 0.21 | 51 | 993.5 |
| 20260507002416 | 51 | 90 | 7.0 | 8.0 | 0.00 | 0.49 | 0.21 | 51 | 993.4 |
| 20260507001917 | 51 | 90 | 6.0 | 7.0 | 0.00 | 0.49 | 0.21 | 52 | 993.4 |
| 20260507001417 | 52 | 90 | 6.0 | 8.0 | 0.00 | 0.50 | 0.21 | 52 | 993.3 |
| 20260507000937 | 51 | 90 | 6.0 | 8.0 | 0.00 | 0.50 | 0.21 | 52 | 993.4 |
| 20260507000416 | 52 | 90 | 7.0 | 8.0 | 0.00 | 0.50 | 0.21 | 52 | 993.4 |
| 20260506235917 | 52 | 90 | 6.0 | 7.0 | 0.00 | 0.51 | 0.21 | 51 | 993.5 |
| 20260506235416 | 52 | 90 | 6.0 | 8.0 | 0.00 | 0.52 | 0.21 | 52 | 993.5 |
| 20260506234917 | 52 | 90 | 7.0 | 8.0 | 0.00 | 0.53 | 0.21 | 51 | 993.3 |
| 20260506234417 | 52 | 90 | 6.0 | 8.0 | 0.00 | 0.53 | 0.21 | 51 | 993.5 |
| 20260506233918 | 52 | 90 | 6.0 | 8.0 | 0.00 | 0.54 | 0.21 | 52 | 993.4 |
| 20260506233416 | 52 | 90 | 6.0 | 7.0 | 0.00 | 0.55 | 0.21 | 52 | 993.4 |
| 20260506232916 | 52 | 90 | 6.0 | 8.0 | 0.00 | 0.55 | 0.21 | 51 | 993.4 |
| 20260506232417 | 52 | 90 | 7.0 | 8.0 | 0.00 | 0.55 | 0.21 | 51 | 993.3 |
| 20260506231916 | 52 | 90 | 7.0 | 9.0 | 0.00 | 0.56 | 0.21 | 51 | 993.3 |
| 20260506231417 | 52 | 90 | 6.0 | 7.0 | 0.00 | 0.56 | 0.21 | 51 | 993.4 |
| 20260506230937 | 52 | 90 | 5.0 | 7.0 | 0.00 | 0.57 | 0.21 | 50 | 993.4 |
| 20260506230416 | 52 | 90 | 4.0 | 7.0 | 0.00 | 0.57 | 0.21 | 52 | 993.2 |
| 20260506225917 | 51 | 90 | 4.0 | 6.0 | 0.00 | 0.57 | 0.21 | 50 | 993.3 |
| 20260506225416 | 51 | 45 | 4.0 | 6.0 | 0.00 | 0.57 | 0.21 | 50 | 993.4 |
| 20260506224916 | 51 | 68 | 5.0 | 7.0 | 0.00 | 0.57 | 0.21 | 49 | 993.3 |
| 20260506224416 | 51 | 68 | 4.0 | 6.0 | 0.00 | 0.57 | 0.21 | 50 | 993.3 |
| 20260506223917 | 52 | 68 | 4.0 | 5.0 | 0.00 | 0.57 | 0.21 | 49 | 993.2 |
| 20260506223416 | 52 | 68 | 3.0 | 3.0 | 0.00 | 0.57 | 0.21 | 50 | 993.4 |
| 20260506222916 | 52 | 68 | 4.0 | 5.0 | 0.00 | 0.58 | 0.21 | 51 | 993.5 |
| 20260506222439 | 51 | 45 | 4.0 | 6.0 | 0.00 | 0.61 | 0.21 | 52 | 993.5 |
| 20260506221919 | 52 | 68 | 4.0 | 6.0 | 0.00 | 0.61 | 0.21 | 52 | 993.5 |
| 20260506221419 | 52 | 68 | 4.0 | 4.0 | 0.00 | 0.62 | 0.21 | 52 | 993.6 |
| 20260506220918 | 52 | 68 | 5.0 | 8.0 | 0.00 | 0.64 | 0.21 | 52 | 993.6 |
| 20260506220458 | 52 | 45 | 4.0 | 5.0 | 0.00 | 0.67 | 0.21 | 52 | 993.5 |
| 20260506215919 | 51 | 45 | 3.0 | 5.0 | 0.00 | 0.69 | 0.21 | 52 | 993.3 |
| 20260506215418 | 51 | 23 | 2.0 | 3.0 | 0.00 | 0.72 | 0.21 | 52 | 993.4 |
| 20260506214919 | 51 | 68 | 4.0 | 5.0 | 0.00 | 0.73 | 0.21 | 52 | 993.3 |
| 20260506214419 | 51 | 68 | 4.0 | 7.0 | 0.00 | 0.75 | 0.21 | 53 | 993.2 |
| 20260506213918 | 51 | 23 | 5.0 | 7.0 | 0.00 | 0.77 | 0.21 | 53 | 993.1 |
| 20260506213418 | 51 | 45 | 6.0 | 7.0 | 0.00 | 0.80 | 0.21 | 53 | 993.2 |
| 20260506212918 | 51 | 68 | 6.0 | 9.0 | 0.00 | 0.83 | 0.21 | 54 | 993.2 |
| 20260506212418 | 52 | 45 | 8.0 | 11.0 | 0.00 | 0.84 | 0.21 | 54 | 993.0 |
| 20260506211920 | 52 | 45 | 4.0 | 5.0 | 0.00 | 0.85 | 0.21 | 54 | 993.1 |
| 20260506211418 | 51 | 68 | 6.0 | 7.0 | 0.00 | 0.85 | 0.21 | 53 | 992.9 |
| 20260506210940 | 51 | 45 | 6.0 | 8.0 | 0.00 | 0.86 | 0.21 | 53 | 992.9 |
| 20260506210419 | 52 | 68 | 7.0 | 9.0 | 0.00 | 0.87 | 0.21 | 54 | 992.8 |
| 20260506205939 | 52 | 68 | 4.0 | 6.0 | 0.00 | 0.87 | 0.21 | 53 | 992.8 |
| 20260506205420 | 52 | 68 | 6.0 | 9.0 | 0.00 | 0.88 | 0.21 | 53 | 992.8 |
| 20260506205022 | 53 | 68 | 7.0 | 11.0 | 0.00 | 0.88 | 0.21 | 53 | 992.9 |
| 20260506204421 | 53 | 23 | 4.0 | 6.0 | 0.00 | 0.89 | 0.21 | 51 | 992.7 |
| 20260506203919 | 53 | 45 | 8.0 | 10.0 | 0.00 | 0.90 | 0.21 | 50 | 992.7 |
| 20260506203419 | 53 | 23 | 6.0 | 8.0 | 0.00 | 0.90 | 0.21 | 49 | 992.7 |
| 20260506202918 | 54 | 23 | 6.0 | 7.0 | 0.00 | 0.91 | 0.21 | 49 | 992.7 |
| 20260506202419 | 54 | 45 | 5.0 | 7.0 | 0.00 | 0.92 | 0.21 | 48 | 992.6 |
| 20260506202018 | 54 | 0 | 8.0 | 10.0 | 0.00 | 0.92 | 0.21 | 48 | 992.6 |
| 20260506201420 | 55 | 338 | 6.0 | 10.0 | 0.00 | 0.93 | 0.21 | 39 | 992.6 |
| 20260506200917 | 55 | 338 | 5.0 | 9.0 | 0.00 | 0.94 | 0.21 | 40 | 992.7 |
| 20260506200418 | 55 | 338 | 6.0 | 10.0 | 0.00 | 0.95 | 0.21 | 37 | 992.8 |
| 20260506195918 | 55 | 315 | 6.0 | 11.0 | 0.00 | 0.96 | 0.21 | 40 | 992.8 |
| 20260506195420 | 55 | 338 | 8.0 | 11.0 | 0.00 | 0.98 | 0.21 | 37 | 992.8 |
| 20260506194938 | 55 | 338 | 9.0 | 13.0 | 0.00 | 1.00 | 0.21 | 42 | 992.7 |
| 20260506194420 | 55 | 315 | 7.0 | 9.0 | 0.00 | 1.02 | 0.21 | 41 | 992.7 |
| 20260506194000 | 55 | 338 | 9.0 | 13.0 | 0.00 | 1.03 | 0.21 | 41 | 992.7 |
| 20260506193418 | 56 | 315 | 3.0 | 5.0 | 0.00 | 1.04 | 0.21 | 37 | 992.7 |
| 20260506192919 | 55 | 293 | 5.0 | 8.0 | 0.00 | 1.05 | 0.21 | 36 | 992.6 |
| 20260506192420 | 56 | 293 | 5.0 | 7.0 | 0.00 | 1.05 | 0.21 | 37 | 992.8 |
| 20260506191921 | 56 | 270 | 3.0 | 6.0 | 0.00 | 1.06 | 0.21 | 37 | 992.8 |
| 20260506191420 | 56 | 338 | 3.0 | 5.0 | 0.00 | 1.06 | 0.21 | 41 | 992.6 |
| 20260506190918 | 56 | 0 | 4.0 | 6.0 | 0.00 | 1.07 | 0.21 | 39 | 992.7 |
| 20260506190420 | 56 | 0 | 5.0 | 6.0 | 0.00 | 1.09 | 0.21 | 39 | 992.5 |
| 20260506185918 | 55 | 315 | 3.0 | 4.0 | 0.00 | 1.10 | 0.21 | 39 | 992.5 |
| 20260506185419 | 55 | 338 | 2.0 | 4.0 | 0.00 | 1.11 | 0.21 | 42 | 992.4 |
| 20260506184941 | 55 | 338 | 4.0 | 6.0 | 0.00 | 1.12 | 0.21 | 42 | 992.6 |
| 20260506184420 | 55 | 0 | 5.0 | 8.0 | 0.00 | 1.13 | 0.21 | 43 | 992.6 |
| 20260506183918 | 55 | 338 | 5.0 | 6.0 | 0.00 | 1.14 | 0.21 | 42 | 992.7 |
| 20260506183438 | 56 | 338 | 6.0 | 9.0 | 0.00 | 1.15 | 0.21 | 41 | 992.6 |
| 20260506182938 | 56 | 0 | 3.0 | 7.0 | 0.00 | 1.16 | 0.21 | 38 | 992.7 |
| 20260506182418 | 55 | 270 | 3.0 | 8.0 | 0.00 | 1.17 | 0.21 | 39 | 992.7 |
| 20260506181938 | 55 | 293 | 2.0 | 3.0 | 0.00 | 1.18 | 0.21 | 39 | 992.7 |
| 20260506181418 | 54 | 270 | 5.0 | 7.0 | 0.00 | 1.18 | 0.21 | 39 | 992.7 |
| 20260506180938 | 54 | 270 | 6.0 | 7.0 | 0.00 | 1.19 | 0.21 | 41 | 992.7 |
| 20260506180418 | 54 | 0 | 4.0 | 5.0 | 0.00 | 1.19 | 0.21 | 45 | 992.8 |
| 20260506175920 | 54 | 0 | 2.0 | 4.0 | 0.00 | 1.20 | 0.21 | 46 | 992.7 |
| 20260506175418 | 54 | 0 | 9.0 | 10.0 | 0.00 | 1.20 | 0.21 | 46 | 992.8 |
| 20260506174918 | 54 | 0 | 4.0 | 8.0 | 0.00 | 1.20 | 0.21 | 47 | 992.9 |
| 20260506174438 | 54 | 0 | 7.0 | 9.0 | 0.00 | 1.20 | 0.21 | 49 | 993.0 |
| 20260506173918 | 53 | 23 | 4.0 | 5.0 | 0.00 | 1.20 | 0.21 | 50 | 993.0 |
| 20260506173419 | 53 | 23 | 8.0 | 10.0 | 0.00 | 1.20 | 0.21 | 49 | 993.0 |
| 20260506172918 | 53 | 0 | 9.0 | 11.0 | 0.00 | 1.20 | 0.21 | 50 | 993.0 |
| 20260506172421 | 53 | 0 | 9.0 | 10.0 | 0.00 | 1.20 | 0.21 | 48 | 993.2 |
| 20260506171919 | 53 | 0 | 9.0 | 11.0 | 0.00 | 1.20 | 0.21 | 50 | 993.0 |
| 20260506171418 | 53 | 0 | 10.0 | 11.0 | 0.00 | 1.20 | 0.21 | 49 | 993.1 |
| 20260506170921 | 53 | 0 | 9.0 | 12.0 | 0.00 | 1.20 | 0.21 | 49 | 993.1 |
| 20260506170421 | 53 | 0 | 8.0 | 11.0 | 0.00 | 1.20 | 0.21 | 50 | 993.1 |
| 20260506165940 | 53 | 0 | 8.0 | 10.0 | 0.00 | 1.20 | 0.21 | 49 | 993.0 |
| 20260506165418 | 53 | 0 | 9.0 | 11.0 | 0.00 | 1.20 | 0.21 | 50 | 993.0 |
| 20260506164918 | 52 | 0 | 12.0 | 13.0 | 0.00 | 1.20 | 0.21 | 51 | 993.1 |
| 20260506164418 | 52 | 0 | 9.0 | 11.0 | 0.00 | 1.20 | 0.21 | 51 | 993.0 |
| 20260506163918 | 52 | 0 | 11.0 | 13.0 | 0.00 | 1.20 | 0.21 | 51 | 993.0 |
| 20260506163437 | 52 | 0 | 9.0 | 11.0 | 0.00 | 1.20 | 0.21 | 51 | 993.1 |
| 20260506162917 | 52 | 0 | 11.0 | 12.0 | 0.00 | 1.20 | 0.21 | 50 | 993.1 |
| 20260506162438 | 52 | 0 | 10.0 | 13.0 | 0.00 | 1.20 | 0.21 | 49 | 993.1 |
| 20260506161917 | 52 | 0 | 9.0 | 12.0 | 0.00 | 1.20 | 0.21 | 50 | 992.9 |
| 20260506161418 | 52 | 0 | 9.0 | 11.0 | 0.00 | 1.20 | 0.21 | 51 | 992.9 |
| 20260506160938 | 52 | 0 | 11.0 | 14.0 | 0.00 | 1.20 | 0.21 | 52 | 992.7 |
| 20260506160418 | 52 | 0 | 9.0 | 13.0 | 0.00 | 1.20 | 0.21 | 52 | 992.7 |
| 20260506155918 | 52 | 0 | 9.0 | 12.0 | 0.00 | 1.20 | 0.21 | 51 | 992.6 |
| 20260506155420 | 52 | 338 | 8.0 | 11.0 | 0.00 | 1.20 | 0.21 | 52 | 992.5 |
| 20260506154938 | 52 | 0 | 9.0 | 11.0 | 0.00 | 1.20 | 0.21 | 51 | 992.7 |
| 20260506154417 | 52 | 0 | 8.0 | 11.0 | 0.00 | 1.20 | 0.21 | 51 | 992.6 |
| 20260506153918 | 52 | 0 | 7.0 | 10.0 | 0.00 | 1.20 | 0.21 | 51 | 992.5 |
| 20260506153438 | 52 | 0 | 7.0 | 9.0 | 0.00 | 1.20 | 0.21 | 51 | 992.6 |
| 20260506152920 | 52 | 338 | 7.0 | 8.0 | 0.00 | 1.20 | 0.21 | 52 | 992.5 |
| 20260506152419 | 52 | 338 | 7.0 | 9.0 | 0.00 | 1.20 | 0.21 | 52 | 992.5 |
| 20260506152001 | 52 | 338 | 7.0 | 11.0 | 0.00 | 1.20 | 0.21 | 52 | 992.3 |
| 20260506151419 | 52 | 0 | 8.0 | 10.0 | 0.00 | 1.20 | 0.21 | 52 | 992.2 |
| 20260506150919 | 52 | 338 | 8.0 | 10.0 | 0.00 | 1.20 | 0.21 | 52 | 992.1 |
| 20260506150418 | 52 | 0 | 12.0 | 18.0 | 0.00 | 1.20 | 0.21 | 51 | 992.1 |
| 20260506145940 | 52 | 0 | 11.0 | 16.0 | 0.00 | 1.20 | 0.21 | 51 | 991.9 |
| 20260506145419 | 52 | 338 | 7.0 | 10.0 | 0.00 | 1.20 | 0.21 | 51 | 991.9 |
| 20260506144918 | 52 | 0 | 11.0 | 14.0 | 0.00 | 1.20 | 0.21 | 52 | 991.8 |
| 20260506144419 | 52 | 0 | 8.0 | 12.0 | 0.00 | 1.20 | 0.21 | 51 | 991.8 |
| 20260506143940 | 52 | 338 | 9.0 | 12.0 | 0.00 | 1.20 | 0.21 | 51 | 991.8 |
| 20260506143420 | 52 | 0 | 9.0 | 12.0 | 0.00 | 1.20 | 0.21 | 51 | 991.6 |
| 20260506142918 | 52 | 0 | 10.0 | 12.0 | 0.00 | 1.20 | 0.21 | 49 | 991.8 |
| 20260506142417 | 52 | 0 | 8.0 | 11.0 | 0.00 | 1.20 | 0.21 | 50 | 991.8 |
| 20260506141939 | 52 | 0 | 8.0 | 10.0 | 0.00 | 1.20 | 0.21 | 50 | 991.7 |
| 20260506141458 | 52 | 0 | 7.0 | 10.0 | 0.00 | 1.20 | 0.21 | 49 | 991.7 |
| 20260506140920 | 52 | 338 | 4.0 | 8.0 | 0.00 | 1.20 | 0.21 | 49 | 991.7 |
| 20260506140417 | 51 | 338 | 5.0 | 9.0 | 0.00 | 1.20 | 0.21 | 49 | 991.8 |
| 20260506135917 | 51 | 338 | 7.0 | 9.0 | 0.00 | 1.20 | 0.21 | 48 | 991.5 |
| 20260506135418 | 51 | 293 | 5.0 | 8.0 | 0.00 | 1.20 | 0.21 | 47 | 991.6 |
| 20260506134917 | 51 | 270 | 6.0 | 11.0 | 0.00 | 1.20 | 0.21 | 48 | 991.4 |
| 20260506134420 | 50 | 270 | 5.0 | 7.0 | 0.00 | 1.20 | 0.21 | 49 | 991.3 |
| 20260506133918 | 50 | 270 | 7.0 | 9.0 | 0.00 | 1.20 | 0.21 | 48 | 991.3 |
| 20260506133421 | 50 | 270 | 5.0 | 7.0 | 0.00 | 1.20 | 0.21 | 48 | 991.2 |
| 20260506132920 | 49 | 270 | 5.0 | 7.0 | 0.00 | 1.20 | 0.21 | 48 | 991.3 |
| 20260506132420 | 49 | 248 | 5.0 | 7.0 | 0.00 | 1.20 | 0.21 | 48 | 991.3 |
| 20260506131938 | 49 | 248 | 6.0 | 7.0 | 0.00 | 1.20 | 0.21 | 48 | 991.1 |
| 20260506130920 | 49 | 270 | 5.0 | 7.0 | 0.00 | 1.20 | 0.21 | 48 | 991.1 |
| 20260506130420 | 49 | 270 | 8.0 | 9.0 | 0.00 | 1.20 | 0.21 | 48 | 991.1 |
| 20260506125920 | 49 | 270 | 7.0 | 9.0 | 0.00 | 1.20 | 0.21 | 49 | 990.9 |
| 20260506125421 | 48 | 270 | 7.0 | 10.0 | 0.00 | 1.20 | 0.21 | 48 | 990.7 |
| 20260506124920 | 48 | 248 | 7.0 | 8.0 | 0.00 | 1.20 | 0.21 | 49 | 990.6 |
| 20260506124420 | 48 | 270 | 6.0 | 8.0 | 0.00 | 1.20 | 0.21 | 49 | 990.6 |
| 20260506123917 | 48 | 270 | 6.0 | 7.0 | 0.00 | 1.20 | 0.21 | 50 | 990.5 |
| 20260506123420 | 48 | 270 | 6.0 | 8.0 | 0.00 | 1.20 | 0.21 | 50 | 990.6 |
| 20260506122920 | 48 | 270 | 7.0 | 9.0 | 0.00 | 1.20 | 0.21 | 51 | 990.5 |
| 20260506122420 | 47 | 270 | 5.0 | 7.0 | 0.00 | 1.20 | 0.21 | 51 | 990.3 |
| 20260506121918 | 47 | 248 | 4.0 | 5.0 | 0.00 | 1.20 | 0.21 | 51 | 990.2 |
| 20260506121420 | 47 | 270 | 4.0 | 6.0 | 0.00 | 1.20 | 0.21 | 51 | 990.4 |
| 20260506120918 | 47 | 293 | 3.0 | 4.0 | 0.00 | 1.20 | 0.21 | 51 | 990.1 |
| 20260506120420 | 47 | 270 | 4.0 | 7.0 | 0.00 | 1.20 | 0.21 | 51 | 990.1 |
| 20260506115920 | 47 | 270 | 4.0 | 4.0 | 0.00 | 1.20 | 0.21 | 51 | 990.1 |
| 20260506115419 | 47 | 270 | 4.0 | 6.0 | 0.00 | 1.20 | 0.21 | 51 | 990.1 |
| 20260506114918 | 47 | 248 | 4.0 | 5.0 | 0.00 | 1.20 | 0.21 | 51 | 990.4 |
| 20260506114417 | 47 | 248 | 4.0 | 5.0 | 0.00 | 1.20 | 0.21 | 51 | 990.5 |
| 20260506113917 | 47 | 248 | 3.0 | 4.0 | 0.00 | 1.20 | 0.21 | 51 | 990.3 |
| 20260506113418 | 47 | 248 | 4.0 | 5.0 | 0.00 | 1.20 | 0.21 | 51 | 990.2 |
| 20260506112917 | 47 | 248 | 3.0 | 4.0 | 0.00 | 1.20 | 0.21 | 51 | 990.3 |
| 20260506112417 | 47 | 248 | 4.0 | 5.0 | 0.00 | 1.20 | 0.21 | 51 | 990.2 |
| 20260506111937 | 47 | 270 | 3.0 | 6.0 | 0.00 | 1.20 | 0.21 | 50 | 989.9 |
| 20260506111417 | 47 | 270 | 3.0 | 4.0 | 0.00 | 1.20 | 0.21 | 50 | 989.8 |
| 20260506110917 | 47 | 293 | 2.0 | 3.0 | 0.00 | 1.20 | 0.21 | 50 | 989.5 |
| 20260506110417 | 47 | 0.0 | 1.0 | 0.00 | 1.20 | 0.21 | 49 | 989.4 | |
| 20260506105917 | 47 | 315 | 3.0 | 3.0 | 0.00 | 1.20 | 0.21 | 49 | 989.3 |
| 20260506105417 | 46 | 338 | 2.0 | 3.0 | 0.00 | 1.20 | 0.21 | 48 | 989.3 |
| 20260506104917 | 46 | 338 | 2.0 | 4.0 | 0.00 | 1.20 | 0.21 | 48 | 989.1 |
| 20260506104417 | 46 | 293 | 3.0 | 4.0 | 0.00 | 1.20 | 0.21 | 48 | 988.9 |
| 20260506103918 | 46 | 315 | 2.0 | 3.0 | 0.00 | 1.20 | 0.21 | 48 | 988.9 |
| 20260506103458 | 46 | 315 | 1.0 | 3.0 | 0.00 | 1.20 | 0.21 | 49 | 988.9 |
| 20260506102917 | 46 | 0.0 | 2.0 | 0.00 | 1.20 | 0.21 | 49 | 988.9 | |
| 20260506102417 | 46 | 315 | 1.0 | 2.0 | 0.00 | 1.20 | 0.21 | 49 | 988.7 |
| 20260506101938 | 46 | 0.0 | 1.0 | 0.00 | 1.20 | 0.21 | 49 | 988.7 | |
| 20260506101417 | 46 | 315 | 2.0 | 3.0 | 0.00 | 1.20 | 0.21 | 49 | 989.0 |
| 20260506100937 | 46 | 315 | 2.0 | 3.0 | 0.00 | 1.20 | 0.21 | 49 | 989.0 |
| 20260506100417 | 46 | 315 | 1.0 | 3.0 | 0.01 | 1.20 | 0.21 | 48 | 988.6 |
| 20260506095938 | 46 | 293 | 1.0 | 2.0 | 0.01 | 1.20 | 0.21 | 48 | 988.7 |
| 20260506095417 | 46 | 293 | 1.0 | 2.0 | 0.01 | 1.20 | 0.21 | 49 | 989.0 |
| 20260506094918 | 46 | 293 | 2.0 | 3.0 | 0.01 | 1.20 | 0.21 | 48 | 989.3 |
| 20260506094437 | 46 | 315 | 2.0 | 4.0 | 0.01 | 1.20 | 0.21 | 48 | 989.3 |
| 20260506093917 | 46 | 315 | 4.0 | 9.0 | 0.01 | 1.20 | 0.21 | 48 | 989.0 |
| 20260506093417 | 46 | 315 | 5.0 | 8.0 | 0.01 | 1.20 | 0.21 | 48 | 989.0 |
| 20260506092917 | 46 | 338 | 4.0 | 5.0 | 0.01 | 1.20 | 0.21 | 48 | 988.8 |